Appleton, MN

7:04 AM CDT on April 19, 2018 (GMT -0500)
Appleton Municipal

Weather History for KAQP - August, 2013

Change the Weather History Date:

Tuesday, August 6, 2013

  Actual Average Record
Temperature  
Mean Temperature 73 °F -  
Max Temperature 86 °F 77 °F 93 °F (2001)
Min Temperature 60 °F 56 °F 53 °F (2004)
Cooling Degree Days 8    
Growing Degree Days 23 (Base 50)    
Moisture  
Dew Point 61 °F    
Average Humidity 73    
Maximum Humidity 94    
Minimum Humidity 45    
Precipitation  
Precipitation 0.00 in - - ()
Sea Level Pressure  
Sea Level Pressure 29.78 in    
Wind  
Wind Speed 5 mph (WSW)    
Max Wind Speed 23 mph    
Max Gust Speed 40 mph    
Visibility 10 miles    
Events      
Averages and records for this station are not official NWS values.
T = Trace of Precipitation, MM = Missing Value Source: NWS Daily Summary

Daily Weather History Graph

Daily Weather History Graph

Search for Another Location

Airport or City:

Astronomy

Aug. 06, 2013 Rise Set
Actual Time 6:14 AM CDT 8:44 PM CDT
Civil Twilight 5:41 AM CDT 9:17 PM CDT
Nautical Twilight 4:59 AM CDT 9:58 PM CDT
Astronomical Twilight 4:12 AM CDT 10:45 PM CDT
Moon 6:09 AM CDT (8/6) 8:15 PM CDT (8/6)
Length of Visible Light 15h 35m
Length of Day
14h 29m
Waning Crescent, 0% of the Moon is Illuminated
Aug 6
Waning Crescent
Aug 6
New
Aug 14
First Quarter
Aug 20
Full
Aug 28
Last Quarter

Hourly Weather History & Observations

Time (CDT) Temp. Heat Index Dew Point Humidity Pressure Visibility Wind Dir Wind Speed Gust Speed Precip Events Conditions
12:13 AM 60.8 °F - 57.2 °F 88% 29.87 in 10.0 mi Calm Calm - N/A   Clear
12:34 AM 60.8 °F - 59.0 °F 94% 29.85 in 10.0 mi Calm Calm - N/A   Clear
12:53 AM 60.8 °F - 57.2 °F 88% 29.85 in 10.0 mi Calm Calm - N/A   Clear
1:13 AM 60.8 °F - 57.2 °F 88% 29.85 in 10.0 mi Calm Calm - N/A   Clear
1:34 AM 60.8 °F - 57.2 °F 88% 29.85 in 7.0 mi Calm Calm - N/A   Clear
1:53 AM 60.8 °F - 57.2 °F 88% 29.84 in 7.0 mi Calm Calm - N/A   Clear
2:13 AM 60.8 °F - 57.2 °F 88% 29.84 in 10.0 mi Calm Calm - N/A   Clear
2:33 AM 60.8 °F - 57.2 °F 88% 29.84 in 10.0 mi Calm Calm - N/A   Clear
2:53 AM 60.8 °F - 57.2 °F 88% 29.83 in 10.0 mi SE 3.5 mph - N/A   Clear
3:13 AM 60.8 °F - 57.2 °F 88% 29.81 in 10.0 mi Calm Calm - N/A   Clear
3:33 AM 60.8 °F - 57.2 °F 88% 29.81 in 10.0 mi Calm Calm - N/A   Clear
3:53 AM 60.8 °F - 57.2 °F 88% 29.80 in 10.0 mi SE 4.6 mph - N/A   Clear
4:13 AM 60.8 °F - 57.2 °F 88% 29.79 in 10.0 mi SE 5.8 mph - N/A   Clear
4:33 AM 60.8 °F - 57.2 °F 88% 29.79 in 10.0 mi SE 5.8 mph - N/A   Clear
4:53 AM 60.8 °F - 57.2 °F 88% 29.81 in 10.0 mi SSE 4.6 mph - N/A   Clear
5:14 AM 60.8 °F - 57.2 °F 88% 29.81 in 10.0 mi SSE 6.9 mph - N/A   Clear
5:33 AM 60.8 °F - 57.2 °F 88% 29.79 in 10.0 mi SE 6.9 mph - N/A   Clear
5:53 AM 60.8 °F - 57.2 °F 88% 29.80 in 10.0 mi SSE 5.8 mph - N/A   Clear
6:13 AM 62.6 °F - 57.2 °F 82% 29.79 in 10.0 mi SE 6.9 mph - N/A   Clear
6:33 AM 62.6 °F - 59.0 °F 88% 29.78 in 10.0 mi SE 6.9 mph - N/A   Clear
6:53 AM 62.6 °F - 59.0 °F 88% 29.78 in 10.0 mi SE 6.9 mph - N/A   Clear
7:13 AM 62.6 °F - 60.8 °F 94% 29.77 in 10.0 mi SE 8.1 mph - N/A   Clear
7:33 AM 62.6 °F - 60.8 °F 94% 29.78 in 7.0 mi SSE 5.8 mph - N/A   Clear
7:54 AM 64.4 °F - 60.8 °F 88% 29.77 in 7.0 mi SE 8.1 mph - N/A   Clear
8:13 AM 64.4 °F - 62.6 °F 94% 29.77 in 7.0 mi SE 4.6 mph - N/A   Clear
8:34 AM 66.2 °F - 62.6 °F 88% 29.78 in 7.0 mi Calm Calm - N/A   Clear
8:53 AM 66.2 °F - 62.6 °F 88% 29.77 in 10.0 mi SSE 3.5 mph - N/A   Clear
9:13 AM 69.8 °F - 64.4 °F 83% 29.76 in 10.0 mi South 5.8 mph - N/A   Clear
9:34 AM 73.4 °F - 64.4 °F 73% 29.75 in 10.0 mi SSW 6.9 mph - N/A   Clear
9:53 AM 73.4 °F - 62.6 °F 69% 29.75 in 10.0 mi South 5.8 mph - N/A   Clear
10:13 AM 73.4 °F - 62.6 °F 69% 29.75 in 10.0 mi SW 6.9 mph - N/A   Clear
10:33 AM 75.2 °F - 62.6 °F 65% 29.75 in 10.0 mi West 5.8 mph - N/A   Clear
10:53 AM 77.0 °F - 62.6 °F 61% 29.74 in 10.0 mi SW 6.9 mph - N/A   Clear
11:14 AM 78.8 °F - 62.6 °F 57% 29.75 in 10.0 mi West 11.5 mph - N/A   Clear
11:33 AM 78.8 °F - 62.6 °F 57% 29.75 in 10.0 mi West 9.2 mph - N/A   Clear
11:53 AM 80.6 °F 81.8 °F 62.6 °F 54% 29.75 in 10.0 mi West 10.4 mph - N/A   Clear
12:13 PM 80.6 °F 81.5 °F 60.8 °F 51% 29.75 in 10.0 mi West 9.2 mph - N/A   Clear
12:33 PM 80.6 °F 81.8 °F 62.6 °F 54% 29.75 in 10.0 mi WSW 6.9 mph - N/A   Clear
12:53 PM 82.4 °F 83.4 °F 62.6 °F 51% 29.75 in 10.0 mi West 8.1 mph - N/A   Clear
1:14 PM 82.4 °F 83.4 °F 62.6 °F 51% 29.74 in 10.0 mi West 6.9 mph - N/A   Clear
1:34 PM 84.2 °F 85.0 °F 62.6 °F 48% 29.74 in 10.0 mi WSW 10.4 mph - N/A   Clear
1:53 PM 84.2 °F 85.0 °F 62.6 °F 48% 29.74 in 10.0 mi West 11.5 mph 17.3 mph N/A   Clear
2:13 PM 82.4 °F 83.9 °F 64.4 °F 54% 29.74 in 10.0 mi West 11.5 mph - N/A   Clear
2:33 PM 84.2 °F 85.0 °F 62.6 °F 48% 29.74 in 10.0 mi West 12.7 mph 18.4 mph N/A   Clear
2:53 PM 84.2 °F 85.0 °F 62.6 °F 48% 29.74 in 10.0 mi West 17.3 mph 20.7 mph N/A   Clear
3:13 PM 86.0 °F 86.6 °F 62.6 °F 45% 29.74 in 10.0 mi West 15.0 mph - N/A   Clear
3:33 PM 84.2 °F 85.6 °F 64.4 °F 51% 29.73 in 10.0 mi WSW 9.2 mph 16.1 mph N/A   Scattered Clouds
3:54 PM 86.0 °F 86.6 °F 62.6 °F 45% 29.72 in 10.0 mi West 16.1 mph - N/A   Scattered Clouds
4:14 PM 84.2 °F 85.0 °F 62.6 °F 48% 29.71 in 10.0 mi WSW 12.7 mph - N/A   Scattered Clouds
4:33 PM 84.2 °F 85.6 °F 64.4 °F 51% 29.71 in 10.0 mi West 11.5 mph - N/A   Clear
4:53 PM 86.0 °F 87.3 °F 64.4 °F 48% 29.70 in 10.0 mi WSW 10.4 mph - N/A   Clear
5:14 PM 82.4 °F 83.9 °F 64.4 °F 54% 29.69 in 10.0 mi WSW 15.0 mph 21.9 mph N/A   Clear
5:33 PM 84.2 °F 85.6 °F 64.4 °F 51% 29.69 in 10.0 mi WSW 11.5 mph 19.6 mph N/A   Clear
5:54 PM 84.2 °F 85.0 °F 62.6 °F 48% 29.69 in 10.0 mi WSW 16.1 mph 20.7 mph N/A   Clear
6:13 PM 84.2 °F 85.6 °F 64.4 °F 51% 29.70 in 10.0 mi West 13.8 mph 21.9 mph N/A   Clear
6:33 PM 82.4 °F 83.9 °F 64.4 °F 54% 29.71 in 10.0 mi West 17.3 mph 23.0 mph N/A   Scattered Clouds
6:53 PM 82.4 °F 83.9 °F 64.4 °F 54% 29.72 in 10.0 mi West 16.1 mph - N/A   Scattered Clouds
7:13 PM 73.4 °F - 59.0 °F 61% 29.76 in 10.0 mi North 23.0 mph 40.3 mph N/A   Scattered Clouds
7:33 PM 71.6 °F - 57.2 °F 60% 29.75 in 10.0 mi NNW 15.0 mph 24.2 mph N/A   Clear
7:54 PM 71.6 °F - 57.2 °F 60% 29.75 in 10.0 mi NNW 16.1 mph - N/A   Clear
8:13 PM 69.8 °F - 59.0 °F 68% 29.75 in 10.0 mi NNW 6.9 mph - N/A   Clear
8:33 PM 68.0 °F - 60.8 °F 78% 29.76 in 10.0 mi West 4.6 mph - N/A   Clear
8:54 PM 66.2 °F - 60.8 °F 83% 29.78 in 10.0 mi WNW 4.6 mph - N/A   Clear
9:14 PM 64.4 °F - 60.8 °F 88% 29.80 in 10.0 mi West 6.9 mph - N/A   Clear
9:33 PM 64.4 °F - 60.8 °F 88% 29.82 in 10.0 mi WNW 5.8 mph - N/A   Clear
9:53 PM 64.4 °F - 62.6 °F 94% 29.82 in 10.0 mi NW 9.2 mph - N/A   Clear
10:13 PM 64.4 °F - 62.6 °F 94% 29.83 in 10.0 mi NNW 9.2 mph - N/A   Clear
10:33 PM 64.4 °F - 60.8 °F 88% 29.84 in 10.0 mi NNW 11.5 mph - N/A   Clear
10:55 PM 64.4 °F - 60.8 °F 88% 29.85 in 10.0 mi NNW 9.2 mph - N/A   Clear
11:13 PM 64.4 °F - 60.8 °F 88% 29.85 in 10.0 mi NW 8.1 mph - N/A   Clear
11:34 PM 64.4 °F - 60.8 °F 88% 29.86 in 10.0 mi NNW 9.2 mph - N/A   Scattered Clouds
11:53 PM 64.4 °F - 60.8 °F 88% 29.86 in 10.0 mi NNW 12.7 mph 16.1 mph N/A   Scattered Clouds